Location: Ravensburg
(47.7866°N, 9.6124°E)
Time: 22:27:00
(UTC+02:00)

AO-85 - Pass Details

Date: 09 March 2026
Orbit: 507 x 686 km, 64.8° (Epoch: 11 April)

Event Time Altitude Azimuth Distance (km) Brightness Sun altitude
Rises 05:41:46 0° 191° (SSW) 2,732 ? -11.8°
Reaches altitude 10° 05:44:10 10° 181° (S) 1,812 ? -11.4°
Maximum altitude 05:47:45 31° 119° (ESE) 946 ? -10.8°
Drops below altitude 10° 05:51:14 10° 56° (NE) 1,757 ? -10.2°
Sets 05:53:32 0° 46° (NE) 2,634 ? -9.8°
